Weather History for KMNH - January, 2013

Change the Weather History Date:

Tuesday, January 22, 2013

  Actual Average (KAPA) Record (KAPA)
Temperature  
Mean Temperature 44 °F -  
Max Temperature 59 °F 43 °F 64 °F (2009)
Min Temperature 30 °F 20 °F -2 °F (2008)
Degree Days  
Heating Degree Days 20    
Moisture  
Dew Point -7 °F    
Average Humidity 14    
Maximum Humidity 25    
Minimum Humidity 6    
Precipitation  
Precipitation 0.00 in - - ()
Sea Level Pressure  
Sea Level Pressure 30.14 in    
Wind  
Wind Speed 11 mph (WSW)    
Max Wind Speed 16 mph    
Max Gust Speed 24 mph    
Visibility 10 miles    
Events      
Averages and records for this station are not official NWS values.
T = Trace of Precipitation, MM = Missing Value Source: NWS Daily Summary

Daily Weather History Graph

Daily Weather History Graph

Search for Another Location

Airport or City:

Trip Planner

Search our weather history database for the weather conditions in past years. The results will help you decide how hot, cold, wet, or windy it might be!

Date:

Astronomy

Jan. 22, 2013 Rise Set
Actual Time 7:12 AM MST 5:08 PM MST
Civil Twilight 6:43 AM MST 5:36 PM MST
Nautical Twilight 6:11 AM MST 6:09 PM MST
Astronomical Twilight 5:39 AM MST 6:41 PM MST
Moon 1:33 PM MST (1/22) 3:36 AM MST (1/22)
Length of Visible Light 10h 53m
Length of Day
9h 55m
Waxing Gibbous, 83% of the Moon is Illuminated
Jan 22
Waxing Gibbous
Jan 26
Full
Feb 3
Last Quarter
Feb 10
New
Feb 17
First Quarter

Hourly Weather History & Observations

Time (MST) Temp. Windchill Dew Point Humidity Pressure Visibility Wind Dir Wind Speed Gust Speed Precip Events Conditions
12:15 AM 32.0 °F 24.8 °F -2.2 °F 23% 30.11 in 10.0 mi WSW 8.1 mph - N/A   Clear
12:35 AM 32.0 °F 24.2 °F -0.4 °F 25% 30.11 in 10.0 mi WSW 9.2 mph - N/A   Clear
12:55 AM 32.0 °F 23.6 °F -4.0 °F 21% 30.10 in 10.0 mi SW 10.4 mph - N/A   Clear
1:15 AM 32.0 °F 23.6 °F -4.0 °F 21% 30.10 in 10.0 mi SW 10.4 mph - N/A   Clear
1:35 AM 32.0 °F 22.5 °F -4.0 °F 21% 30.10 in 10.0 mi SW 12.7 mph - N/A   Clear
1:55 AM 32.0 °F 23.0 °F -5.8 °F 20% 30.11 in 10.0 mi SW 11.5 mph - N/A   Clear
2:15 AM 33.8 °F 24.3 °F -5.8 °F 18% 30.11 in 10.0 mi SW 13.8 mph - N/A   Clear
2:34 AM 32.0 °F 22.1 °F -5.8 °F 20% 30.11 in 10.0 mi SW 13.8 mph - N/A   Clear
2:55 AM 32.0 °F 23.6 °F -5.8 °F 20% 30.10 in 10.0 mi SSW 10.4 mph - N/A   Clear
3:15 AM 32.0 °F 21.6 °F -5.8 °F 20% 30.09 in 10.0 mi SW 15.0 mph - N/A   Clear
3:35 AM 32.0 °F 21.6 °F -7.6 °F 18% 30.08 in 10.0 mi SW 15.0 mph - N/A   Clear
3:55 AM 32.0 °F 21.6 °F -7.6 °F 18% 30.07 in 10.0 mi SW 15.0 mph - N/A   Clear
4:15 AM 33.8 °F 24.3 °F -7.6 °F 17% 30.07 in 10.0 mi SW 13.8 mph - N/A   Clear
4:35 AM 32.0 °F 22.1 °F -7.6 °F 18% 30.07 in 10.0 mi SW 13.8 mph - N/A   Clear
4:55 AM 33.8 °F 23.9 °F -7.6 °F 17% 30.07 in 10.0 mi SW 15.0 mph - N/A   Clear
5:14 AM 35.6 °F 26.6 °F -7.6 °F 16% 30.07 in 10.0 mi SW 13.8 mph - N/A   Clear
5:35 AM 35.6 °F 26.6 °F -9.4 °F 14% 30.07 in 10.0 mi SW 13.8 mph - N/A   Clear
5:55 AM 35.6 °F 27.5 °F -7.6 °F 16% 30.08 in 10.0 mi SW 11.5 mph - N/A   Clear
6:15 AM 33.8 °F 24.8 °F -9.4 °F 15% 30.10 in 10.0 mi WSW 12.7 mph - N/A   Clear
6:35 AM 35.6 °F 28.6 °F -9.4 °F 14% 30.12 in 10.0 mi SW 9.2 mph - N/A   Clear
6:55 AM 35.6 °F 28.6 °F -9.4 °F 14% 30.12 in 10.0 mi WSW 9.2 mph - N/A   Clear
7:15 AM 35.6 °F 29.2 °F -11.2 °F 13% 30.13 in 10.0 mi SW 8.1 mph - N/A   Clear
7:35 AM 32.0 °F 25.6 °F -9.4 °F 17% 30.13 in 10.0 mi WSW 6.9 mph - N/A   Clear
7:55 AM 32.0 °F 24.2 °F -5.8 °F 20% 30.15 in 7.0 mi WSW 9.2 mph - N/A   Clear
8:15 AM 33.8 °F 27.0 °F -4.0 °F 20% 30.15 in 10.0 mi WSW 8.1 mph - N/A   Clear
8:34 AM 39.2 °F 34.2 °F -5.8 °F 15% 30.15 in 10.0 mi WSW 6.9 mph - N/A   Clear
8:55 AM 42.8 °F 38.6 °F -4.0 °F 14% 30.15 in 10.0 mi SW 6.9 mph - N/A   Clear
9:15 AM 44.6 °F 40.2 °F -4.0 °F 13% 30.16 in 10.0 mi SW 8.1 mph - N/A   Clear
9:35 AM 48.2 °F - -4.0 °F 11% 30.16 in 10.0 mi WSW 8.1 mph - N/A   Clear
9:55 AM 50.0 °F - -5.8 °F 10% 30.16 in 10.0 mi WSW 9.2 mph - N/A   Clear
10:14 AM 51.8 °F - -7.6 °F 8% 30.16 in 10.0 mi WSW 11.5 mph - N/A   Clear
10:35 AM 53.6 °F - -5.8 °F 9% 30.16 in 10.0 mi WSW 6.9 mph - N/A   Clear
10:55 AM 55.4 °F - -7.6 °F 7% 30.15 in 10.0 mi WSW 13.8 mph - N/A   Clear
11:15 AM 55.4 °F - -9.4 °F 7% 30.15 in 10.0 mi West 13.8 mph 21.9 mph N/A   Clear
11:35 AM 55.4 °F - -7.6 °F 7% 30.13 in 10.0 mi WSW 15.0 mph - N/A   Clear
11:55 AM 57.2 °F - -7.6 °F 7% 30.13 in 10.0 mi West 15.0 mph 20.7 mph N/A   Clear
12:15 PM 57.2 °F - -7.6 °F 7% 30.13 in 10.0 mi West 12.7 mph 19.6 mph N/A   Clear
12:35 PM 59.0 °F - -7.6 °F 6% 30.13 in 10.0 mi WNW 12.7 mph 17.3 mph N/A   Clear
12:55 PM 59.0 °F - -7.6 °F 6% 30.13 in 10.0 mi WNW 15.0 mph - N/A   Clear
1:15 PM 59.0 °F - -7.6 °F 6% 30.12 in 10.0 mi NW 13.8 mph 24.2 mph N/A   Clear
1:34 PM 57.2 °F - -5.8 °F 8% 30.12 in 10.0 mi NNW 13.8 mph 19.6 mph N/A   Clear
1:55 PM 57.2 °F - -7.6 °F 7% 30.13 in 10.0 mi NW 16.1 mph 24.2 mph N/A   Clear
2:15 PM 57.2 °F - -9.4 °F 6% 30.13 in 10.0 mi NW 13.8 mph - N/A   Clear
2:35 PM 57.2 °F - -9.4 °F 6% 30.12 in 10.0 mi WNW 12.7 mph 18.4 mph N/A   Clear
2:55 PM 57.2 °F - -7.6 °F 7% 30.12 in 10.0 mi WNW 11.5 mph - N/A   Clear
3:15 PM 57.2 °F - -9.4 °F 6% 30.13 in 10.0 mi NNW 12.7 mph - N/A   Clear
3:35 PM 55.4 °F - -7.6 °F 7% 30.13 in 10.0 mi NNW 11.5 mph - N/A   Clear
3:54 PM 55.4 °F - -5.8 °F 8% 30.14 in 10.0 mi NNW 6.9 mph - N/A   Clear
4:15 PM 53.6 °F - -7.6 °F 8% 30.14 in 10.0 mi NNW 9.2 mph - N/A   Clear
4:35 PM 48.2 °F - -5.8 °F 10% 30.15 in 10.0 mi NNW 9.2 mph - N/A   Clear
4:55 PM 44.6 °F 39.7 °F -7.6 °F 11% 30.16 in 10.0 mi NW 9.2 mph - N/A   Clear
5:15 PM 42.8 °F 40.1 °F -9.4 °F 11% 30.16 in 7.0 mi WNW 4.6 mph - N/A   Clear
5:35 PM 41.0 °F 38.0 °F -9.4 °F 12% 30.17 in 10.0 mi North 4.6 mph - N/A   Clear
5:55 PM 44.6 °F 40.7 °F -11.2 °F 9% 30.17 in 10.0 mi NNW 6.9 mph - N/A   Clear
6:15 PM 33.8 °F 27.0 °F -5.8 °F 18% 30.18 in 10.0 mi WSW 8.1 mph - N/A   Clear
6:35 PM 37.4 °F 30.8 °F -7.6 °F 15% 30.18 in 10.0 mi WSW 9.2 mph - N/A   Clear
6:55 PM 33.8 °F 26.4 °F -7.6 °F 17% 30.19 in 7.0 mi WSW 9.2 mph - N/A   Clear
7:15 PM 35.6 °F 29.9 °F -9.4 °F 14% 30.20 in 10.0 mi West 6.9 mph - N/A   Clear
7:35 PM 33.8 °F 29.6 °F -7.6 °F 17% 30.19 in 10.0 mi WSW 4.6 mph - N/A   Clear
7:55 PM 32.0 °F 27.5 °F -7.6 °F 18% 30.20 in 10.0 mi SW 4.6 mph - N/A   Clear
8:15 PM 30.2 °F 22.6 °F -4.0 °F 23% 30.21 in 10.0 mi SSW 8.1 mph - N/A   Clear
8:35 PM 32.0 °F 24.8 °F -4.0 °F 21% 30.21 in 10.0 mi SSW 8.1 mph - N/A   Clear
8:55 PM 32.0 °F 23.6 °F -4.0 °F 21% 30.22 in 10.0 mi SSW 10.4 mph - N/A   Clear
9:15 PM 32.0 °F 24.2 °F -4.0 °F 21% 30.22 in 10.0 mi SW 9.2 mph - N/A   Clear
9:35 PM 35.6 °F 27.1 °F -9.4 °F 14% 30.21 in 10.0 mi SW 12.7 mph - N/A   Clear
9:55 PM 32.0 °F 23.6 °F -5.8 °F 20% 30.21 in 10.0 mi SSW 10.4 mph - N/A   Clear
10:15 PM 32.0 °F 23.6 °F -5.8 °F 20% 30.21 in 10.0 mi SSW 10.4 mph - N/A   Clear
10:35 PM 30.2 °F 21.9 °F -5.8 °F 21% 30.21 in 10.0 mi SSW 9.2 mph - N/A   Clear
10:55 PM 30.2 °F 21.9 °F -7.6 °F 19% 30.22 in 10.0 mi SSW 9.2 mph - N/A   Clear
11:15 PM 32.0 °F 22.5 °F -9.4 °F 17% 30.21 in 10.0 mi SW 12.7 mph - N/A   Clear
11:35 PM 32.0 °F 22.5 °F -9.4 °F 17% 30.21 in 10.0 mi SW 12.7 mph - N/A   Clear
11:55 PM 35.6 °F 27.5 °F -9.4 °F 14% 30.21 in 10.0 mi SSW 11.5 mph - N/A   Clear